{"data":{"norad_id":64368,"intl_designator":"2025-126AA","name":"STARLINK-34457","alt_names":[],"object_type":"PAYLOAD","status":"ACTIVE","operator":null,"country":"US","launch_date":"2025-06-13","launch_site_code":"AFWTR","launch_vehicle":null,"mission":null,"orbit_class":"UNKNOWN","rcs_meters":null,"size_class":null,"mass_kg":null,"dimensions":null,"purposes":["comms"],"wikipedia_slug":null,"has_3d_model":false,"image_url":null,"decayed_at":null,"tle_current":{"epoch":"2026-09-20T22:55:58.715616Z","epoch_age_seconds":95034,"freshness":"FRESH","line1":"1 64368U 25126AA  26263.95554069  .00009284  00000+0  32694-3 0  9994","line2":"2 64368  70.0004 259.6112 0003202 268.4728  91.6081 15.29586105 69990","mean_motion":15.29586105,"eccentricity":0.0003202,"inclination_deg":70.0004,"raan_deg":259.6112,"arg_perigee_deg":268.4728,"mean_anomaly_deg":91.6081,"bstar":0.00032694,"rev_number":6999,"period_min":94.143114617271,"perigee_km":474.85363180862,"apogee_km":479.24369270673,"semimajor_km":6855.1856622577,"source":"CELESTRAK","updated_at":"2026-09-21T09:00:35.321128Z"}}}